COSMOS 252 DEB *, 5322

Orbit data source: Space-Track

COSMOS 252 DEB *, 5322 is space debris in LEO originally from a launch on Fri, 01 Nov 1968 UTC launched from the Tyuratam Missile And Space Complex (TTMTR). Debris objects in space refer to the collection of defunct objects orbiting the Earth. Examples of debris include non-operational satellites, rocket bodies, and fragments generated from explosions, collisions, or faulty payload assembly.

Loading next visibility...
Identifier
5322, 1968-097CJ
Orbit
LEO
Country
Flag of CISCIS
Related business
Manufacturer
Unknown
Mission
Spacecraft
Bus & Motor
Unknown
Mass
Unknown
Launch date (UTC)
1968-11-01 (58 years ago)
Launch vehicle
Unknown
Launch site
Tyuratam Missile And Space Complex (TTMTR)
Object type
Payload
Rocket body
Debris
Shape & HBR
Unknown shape, 0.1 m
Radar Cross Section
Medium (>0.1 m² and <1 m²)

Expand to show TLE details & history
Last TLE update: 22 hours ago

TLE from 22 hours ago
0 COSMOS 252 DEB *
1 05322U 68097CJ  26236.51324056  .00001133  00000-0  83174-3 0  9991
2 05322  61.3202 254.2987 0691906 337.9768  19.2771 13.21424210722861
Epoch: 2026-08-24T12:19Z
TLE epoch observation values (Epoch: 2026-08-24T12:19:03.984Z)
Latitude
-0.00004°
Longitude
96.73821°
Altitude
691.626 km
Speed
7.75 km/s
True Right ascension
16h 57m 11s
True Declination
0° 00' 00"
Sunlit
Object was in daylight at epoch
Visualization orbit readout
Latitude
Unknown
Longitude
Unknown
Altitude
Unknown
Speed
Unknown
Apparent Right ascension
Unknown
Apparent Declination
Unknown
Sunlit
N/A
Visualization observer readout
Local Sidereal Time
01:56:32
Azimuth
Unknown
Elevation
Unknown
Doppler factor
Unknown
Orbital elements
Apogee altitude
1,701.223 km
Perigee altitude
655.542 km
Semi-major axis
7,556.52 km
Eccentricity
0.06919
Inclination
61.3202°
RAAN
254.2987°
Arg. of periapsis
337.9768°
True anomaly
22.12523°
Mean anomaly
19.2771°
Eccentric anomaly
20.6769°
Mean motion
3.30416 °/min
Orbital period
108.95 mins
BSTAR
0.00083174
Loading maneuver chart data...
Computing Atmospheric mass density...
Loading historical data...
Loading historical data...
Loading historical data...
Loading historical data...
Loading historical data...
Loading historical data...
Loading historical data...

Documentation

Showing up to 5 results
|